Time,TemperatureF,DewpointF,PressureIn,WindDirection,WindDirectionDegrees,WindSpeedMPH,WindSpeedGustMPH,Humidity,HourlyPrecipIn,Conditions,Clouds,dailyrainin,SoftwareType,DateUTC
2013-04-18 00:12:00,58.1,57.8,29.93,NW,315,0.0,-999.0,99,-99.99,,,0.00,Acu-Link.com,2013-04-18 04:12:00,
2013-04-18 00:27:00,58.1,57.8,29.92,NW,315,0.0,-999.0,99,-99.99,,,0.00,Acu-Link.com,2013-04-18 04:27:00,
2013-04-18 00:42:00,57.7,57.4,29.92,SSE,157,0.0,-999.0,99,-99.99,,,0.00,Acu-Link.com,2013-04-18 04:42:00,
2013-04-18 00:58:00,57.6,57.3,29.92,NE,45,0.0,-999.0,99,-99.99,,,0.00,Acu-Link.com,2013-04-18 04:58:00,
2013-04-18 01:13:00,57.4,57.1,29.91,WNW,292,0.0,-999.0,99,-99.99,,,0.00,Acu-Link.com,2013-04-18 05:13:00,
2013-04-18 01:28:00,57.0,56.7,29.91,West,270,0.0,-999.0,99,-99.99,,,0.00,Acu-Link.com,2013-04-18 05:28:00,
2013-04-18 01:43:00,56.8,56.5,29.90,NW,315,0.0,-999.0,99,-99.99,,,0.00,Acu-Link.com,2013-04-18 05:43:00,
2013-04-18 01:58:00,56.7,56.4,29.88,NW,315,1.7,-999.0,99,-99.99,,,0.00,Acu-Link.com,2013-04-18 05:58:00,
2013-04-18 02:13:00,56.7,56.4,29.89,West,270,2.7,-999.0,99,-99.99,,,0.00,Acu-Link.com,2013-04-18 06:13:00,
2013-04-18 02:28:00,56.5,56.2,29.90,West,270,3.2,-999.0,99,-99.99,,,0.00,Acu-Link.com,2013-04-18 06:28:00,
2013-04-18 02:43:00,56.7,56.4,29.91,WSW,247,2.2,-999.0,99,-99.99,,,0.00,Acu-Link.com,2013-04-18 06:43:00,
2013-04-18 02:58:00,57.0,56.7,29.92,NW,315,2.7,-999.0,99,-99.99,,,0.00,Acu-Link.com,2013-04-18 06:58:00,
2013-04-18 03:14:00,57.2,56.9,29.91,ESE,112,0.0,-999.0,99,-99.99,,,0.00,Acu-Link.com,2013-04-18 07:14:00,
2013-04-18 03:29:00,57.6,57.3,29.92,NW,315,0.0,-999.0,99,-99.99,,,0.00,Acu-Link.com,2013-04-18 07:29:00,
2013-04-18 03:44:00,57.7,57.4,29.92,NW,315,1.7,-999.0,99,-99.99,,,0.00,Acu-Link.com,2013-04-18 07:44:00,
2013-04-18 03:59:00,57.6,57.3,29.92,North,0,0.0,-999.0,99,-99.99,,,0.00,Acu-Link.com,2013-04-18 07:59:00,
2013-04-18 04:37:00,57.6,57.3,29.92,NE,45,0.0,-999.0,99,-99.99,,,0.00,Acu-Link.com,2013-04-18 08:37:00,
2013-04-18 04:53:00,56.5,56.2,29.93,East,90,0.0,-999.0,99,-99.99,,,0.00,Acu-Link.com,2013-04-18 08:53:00,
2013-04-18 05:08:00,55.9,55.6,29.92,NE,45,0.0,-999.0,99,-99.99,,,0.00,Acu-Link.com,2013-04-18 09:08:00,
2013-04-18 05:24:00,55.9,55.6,29.92,NE,45,0.0,-999.0,99,-99.99,,,0.00,Acu-Link.com,2013-04-18 09:24:00,
2013-04-18 05:39:00,55.8,55.5,29.92,SW,225,0.0,-999.0,99,-99.99,,,0.00,Acu-Link.com,2013-04-18 09:39:00,
2013-04-18 05:54:00,56.3,56.0,29.92,NNW,337,0.0,-999.0,99,-99.99,,,0.00,Acu-Link.com,2013-04-18 09:54:00,
2013-04-18 06:09:00,56.5,56.2,29.92,NNW,337,0.0,-999.0,99,-99.99,,,0.00,Acu-Link.com,2013-04-18 10:09:00,
2013-04-18 06:24:00,56.3,56.0,29.92,ESE,112,0.0,-999.0,99,-99.99,,,0.00,Acu-Link.com,2013-04-18 10:24:00,
2013-04-18 06:39:00,55.9,55.6,29.92,NE,45,0.0,-999.0,99,-99.99,,,0.00,Acu-Link.com,2013-04-18 10:39:00,
2013-04-18 06:54:00,55.8,55.5,29.92,ESE,112,0.0,-999.0,99,-99.99,,,0.00,Acu-Link.com,2013-04-18 10:54:00,
2013-04-18 07:09:00,55.9,55.6,29.91,NE,45,2.7,-999.0,99,-99.99,,,0.00,Acu-Link.com,2013-04-18 11:09:00,
2013-04-18 07:25:00,55.9,55.6,29.92,NW,315,0.0,-999.0,99,-99.99,,,0.00,Acu-Link.com,2013-04-18 11:25:00,
2013-04-18 07:40:00,56.5,56.2,29.93,WNW,292,2.2,-999.0,99,-99.99,,,0.00,Acu-Link.com,2013-04-18 11:40:00,
2013-04-18 07:55:00,57.4,57.1,29.92,WNW,292,1.1,-999.0,99,-99.99,,,0.00,Acu-Link.com,2013-04-18 11:55:00,
2013-04-18 08:10:00,58.5,58.2,29.93,NW,315,0.0,-999.0,99,-99.99,,,0.00,Acu-Link.com,2013-04-18 12:10:00,
2013-04-18 08:25:00,59.7,59.4,29.92,ESE,112,0.0,-999.0,99,-99.99,,,0.00,Acu-Link.com,2013-04-18 12:25:00,
2013-04-18 08:40:00,61.5,60.6,29.92,SE,135,3.7,-999.0,97,-99.99,,,0.00,Acu-Link.com,2013-04-18 12:40:00,
2013-04-18 08:55:00,63.1,60.7,29.93,ESE,112,2.7,-999.0,92,-99.99,,,0.00,Acu-Link.com,2013-04-18 12:55:00,
2013-04-18 09:10:00,65.1,61.5,29.93,ESE,112,4.2,-999.0,88,-99.99,,,0.00,Acu-Link.com,2013-04-18 13:10:00,
2013-04-18 09:25:00,65.1,61.1,29.93,SE,135,3.2,-999.0,87,-99.99,,,0.00,Acu-Link.com,2013-04-18 13:25:00,
2013-04-18 09:41:00,65.1,61.1,29.93,ESE,112,3.7,-999.0,87,-99.99,,,0.00,Acu-Link.com,2013-04-18 13:41:00,
2013-04-18 09:56:00,66.2,61.6,29.94,SSE,157,5.3,-999.0,85,-99.99,,,0.00,Acu-Link.com,2013-04-18 13:56:00,
2013-04-18 10:11:00,65.7,61.1,29.93,ESE,112,4.7,-999.0,85,-99.99,,,0.00,Acu-Link.com,2013-04-18 14:11:00,
2013-04-18 10:26:00,66.7,61.4,29.93,ESE,112,4.7,-999.0,83,-99.99,,,0.00,Acu-Link.com,2013-04-18 14:26:00,
2013-04-18 10:41:00,67.3,60.6,29.93,ESE,112,5.8,-999.0,79,-99.99,,,0.00,Acu-Link.com,2013-04-18 14:41:00,
2013-04-18 10:56:00,66.9,60.9,29.93,ESE,112,6.8,-999.0,81,-99.99,,,0.00,Acu-Link.com,2013-04-18 14:56:00,
2013-04-18 11:11:00,66.9,60.5,29.94,ESE,112,10.4,-999.0,80,-99.99,,,0.00,Acu-Link.com,2013-04-18 15:11:00,
2013-04-18 11:26:00,67.3,59.8,29.93,ESE,112,8.3,-999.0,77,-99.99,,,0.00,Acu-Link.com,2013-04-18 15:26:00,
2013-04-18 11:41:00,70.2,59.9,29.93,ESE,112,5.8,-999.0,70,-99.99,,,0.00,Acu-Link.com,2013-04-18 15:41:00,
2013-04-18 11:57:00,70.5,60.2,29.93,West,270,2.7,-999.0,70,-99.99,,,0.00,Acu-Link.com,2013-04-18 15:57:00,
2013-04-18 12:27:00,73.6,58.4,29.92,West,270,2.2,-999.0,59,-99.99,,,0.00,Acu-Link.com,2013-04-18 16:27:00,
2013-04-18 12:42:00,76.1,59.2,29.92,South,180,3.7,-999.0,56,-99.99,,,0.00,Acu-Link.com,2013-04-18 16:42:00,
2013-04-18 12:57:00,74.5,56.7,29.91,East,90,10.4,-999.0,54,-99.99,,,0.00,Acu-Link.com,2013-04-18 16:57:00,
2013-04-18 13:12:00,73.2,56.5,29.91,ESE,112,7.8,-999.0,56,-99.99,,,0.00,Acu-Link.com,2013-04-18 17:12:00,
2013-04-18 13:42:00,72.9,57.7,29.91,ESE,112,8.3,-999.0,59,-99.99,,,0.00,Acu-Link.com,2013-04-18 17:42:00,
2013-04-18 13:57:00,73.0,57.8,29.90,NE,45,7.8,-999.0,59,-99.99,,,0.00,Acu-Link.com,2013-04-18 17:57:00,
2013-04-18 14:13:00,73.8,58.6,29.89,ESE,112,12.5,-999.0,59,-99.99,,,0.00,Acu-Link.com,2013-04-18 18:13:00,
2013-04-18 14:28:00,72.3,58.1,29.87,ESE,112,11.9,-999.0,61,-99.99,,,0.00,Acu-Link.com,2013-04-18 18:28:00,
2013-04-18 14:43:00,74.5,58.3,29.88,ENE,67,6.8,-999.0,57,-99.99,,,0.00,Acu-Link.com,2013-04-18 18:43:00,
2013-04-18 14:58:00,73.9,57.7,29.87,SE,135,6.8,-999.0,57,-99.99,,,0.00,Acu-Link.com,2013-04-18 18:58:00,
2013-04-18 15:13:00,75.2,56.9,29.86,NNW,337,6.3,-999.0,53,-99.99,,,0.00,Acu-Link.com,2013-04-18 19:13:00,
2013-04-18 15:28:00,75.6,56.2,29.85,SE,135,5.3,-999.0,51,-99.99,,,0.00,Acu-Link.com,2013-04-18 19:28:00,
2013-04-18 15:43:00,74.3,57.1,29.84,ESE,112,9.4,-999.0,55,-99.99,,,0.00,Acu-Link.com,2013-04-18 19:43:00,
2013-04-18 15:58:00,74.5,56.7,29.83,ESE,112,8.3,-999.0,54,-99.99,,,0.00,Acu-Link.com,2013-04-18 19:58:00,
2013-04-18 16:13:00,72.9,56.3,29.82,ESE,112,7.8,-999.0,56,-99.99,,,0.00,Acu-Link.com,2013-04-18 20:13:00,
2013-04-18 16:29:00,78.1,58.5,29.82,South,180,3.7,-999.0,51,-99.99,,,0.00,Acu-Link.com,2013-04-18 20:29:00,
2013-04-18 16:44:00,76.8,57.3,29.81,SE,135,6.8,-999.0,51,-99.99,,,0.00,Acu-Link.com,2013-04-18 20:44:00,
2013-04-18 16:59:00,76.5,57.0,29.80,South,180,5.8,-999.0,51,-99.99,,,0.00,Acu-Link.com,2013-04-18 20:59:00,
2013-04-18 17:14:00,76.6,56.6,29.80,WSW,247,6.3,-999.0,50,-99.99,,,0.00,Acu-Link.com,2013-04-18 21:14:00,
2013-04-18 17:29:00,76.6,57.6,29.79,ESE,112,8.9,-999.0,52,-99.99,,,0.00,Acu-Link.com,2013-04-18 21:29:00,
2013-04-18 17:44:00,72.9,57.7,29.79,SSW,202,7.8,-999.0,59,-99.99,,,0.00,Acu-Link.com,2013-04-18 21:44:00,
2013-04-18 17:59:00,72.7,57.5,29.79,South,180,5.3,-999.0,59,-99.99,,,0.00,Acu-Link.com,2013-04-18 21:59:00,
2013-04-18 18:14:00,72.1,56.5,29.79,SSW,202,5.8,-999.0,58,-99.99,,,0.00,Acu-Link.com,2013-04-18 22:14:00,
2013-04-18 18:29:00,72.1,57.4,29.78,ESE,112,5.8,-999.0,60,-99.99,,,0.00,Acu-Link.com,2013-04-18 22:29:00,
2013-04-18 18:45:00,72.1,57.9,29.78,NW,315,5.3,-999.0,61,-99.99,,,0.00,Acu-Link.com,2013-04-18 22:45:00,
2013-04-18 19:00:00,71.6,57.9,29.77,ESE,112,4.2,-999.0,62,-99.99,,,0.00,Acu-Link.com,2013-04-18 23:00:00,
2013-04-18 19:15:00,71.4,58.1,29.77,ESE,112,3.2,-999.0,63,-99.99,,,0.00,Acu-Link.com,2013-04-18 23:15:00,
2013-04-18 19:30:00,70.7,57.9,29.78,ESE,112,4.2,-999.0,64,-99.99,,,0.00,Acu-Link.com,2013-04-18 23:30:00,
2013-04-18 19:45:00,70.2,58.3,29.77,SSE,157,5.3,-999.0,66,-99.99,,,0.00,Acu-Link.com,2013-04-18 23:45:00,
2013-04-18 20:00:00,70.0,58.5,29.77,East,90,1.1,-999.0,67,-99.99,,,0.00,Acu-Link.com,2013-04-19 00:00:00,
2013-04-18 20:15:00,69.8,58.8,29.77,SSE,157,3.7,-999.0,68,-99.99,,,0.00,Acu-Link.com,2013-04-19 00:15:00,
2013-04-18 20:30:00,69.6,59.0,29.78,ESE,112,5.3,-999.0,69,-99.99,,,0.00,Acu-Link.com,2013-04-19 00:30:00,
2013-04-18 20:45:00,69.3,59.9,29.77,ESE,112,4.7,-999.0,72,-99.99,,,0.00,Acu-Link.com,2013-04-19 00:45:00,
2013-04-18 21:01:00,68.9,60.6,29.78,SE,135,5.8,-999.0,75,-99.99,,,0.00,Acu-Link.com,2013-04-19 01:01:00,
2013-04-18 21:16:00,68.2,60.7,29.79,ESE,112,5.8,-999.0,77,-99.99,,,0.00,Acu-Link.com,2013-04-19 01:16:00,
2013-04-18 21:31:00,68.2,61.4,29.78,SSE,157,3.2,-999.0,79,-99.99,,,0.00,Acu-Link.com,2013-04-19 01:31:00,
2013-04-18 21:46:00,68.0,61.9,29.78,ESE,112,5.3,-999.0,81,-99.99,,,0.00,Acu-Link.com,2013-04-19 01:46:00,
2013-04-18 22:01:00,67.6,61.9,29.77,ESE,112,7.3,-999.0,82,-99.99,,,0.00,Acu-Link.com,2013-04-19 02:01:00,
2013-04-18 22:16:00,67.5,62.5,29.77,ESE,112,5.8,-999.0,84,-99.99,,,0.00,Acu-Link.com,2013-04-19 02:16:00,
2013-04-18 22:31:00,67.1,62.4,29.78,SSE,157,2.2,-999.0,85,-99.99,,,0.00,Acu-Link.com,2013-04-19 02:31:00,
2013-04-18 22:46:00,66.9,62.2,29.76,ESE,112,6.8,-999.0,85,-99.99,,,0.00,Acu-Link.com,2013-04-19 02:46:00,
2013-04-18 23:01:00,66.9,62.2,29.75,ESE,112,3.2,-999.0,85,-99.99,,,0.00,Acu-Link.com,2013-04-19 03:01:00,
2013-04-18 23:17:00,66.7,62.0,29.75,East,90,8.9,-999.0,85,-99.99,,,0.00,Acu-Link.com,2013-04-19 03:17:00,
2013-04-18 23:32:00,66.6,62.3,29.75,East,90,3.7,-999.0,86,-99.99,,,0.00,Acu-Link.com,2013-04-19 03:32:00,
2013-04-18 23:47:00,66.4,62.1,29.74,SE,135,3.7,-999.0,86,-99.99,,,0.00,Acu-Link.com,2013-04-19 03:47:00,